Location: Jetmore
(38.0845°N, 99.8935°W)
Time: 19:06:46
(UTC+00:00)

N. Korean satellite - Pass Details

Date: 25 September 2021
Orbit: 450 x 495 km, 97.3° (Epoch: 25 October)

Event Time Altitude Azimuth Distance (km) Brightness Sun altitude
Rises 11:23:46 0° 22° (NNE) 2,531 10.7 -13.9°
Reaches altitude 10° 11:25:59 10° 33° (NNE) 1,656 9.9 -13.4°
Maximum altitude 11:29:12 32° 98° (E) 854 8.6 -12.8°
Drops below altitude 10° 11:32:27 10° 162° (SSE) 1,666 9.4 -12.2°
Sets 11:34:40 0° 173° (S) 2,548 10.2 -11.7°
